This demonstration page uses our WeatherBlox Daily Observations layout. Learn more.

Left ArrowRight Arrow

Hourly Observations for February 3, 2016

Temp ( °F °C ) Dew Point ( °F °C ) Humidity (%) Winds ( mph kmh ) Pressure ( in mb ) Visibility ( mi km ) Precip ( " mm )
12:51 am 00:51 Clear 29 -1.7 18 -7.8 63 63 N 7 11 30.16 1021 10 16.0934 N/A
1:51 am 01:51 Clear 27 -2.8 18 -7.8 69 69 S 3 6 30.17 1022 10 16.0934 N/A
2:51 am 02:51 Clear 26 -3.3 19 -7.2 75 75 E 7 11 30.18 1022 10 16.0934 N/A
3:51 am 03:51 Clear 25 -3.9 18 -7.8 75 75 ESE 7 11 30.19 1022 10 16.0934 N/A
4:51 am 04:51 Clear 24 -4.4 18 -7.8 77 77 SSE 3 6 30.21 1023 10 16.0934 N/A
5:51 am 05:51 Clear 24 -4.4 18 -7.8 77 77 N N/A 30.24 1024 10 16.0934 N/A
6:51 am 06:51 Clear 22 -5.6 18 -7.8 85 85 ESE 3 6 30.27 1025 10 16.0934 N/A
7:51 am 07:51 Sunny 25 -3.9 20 -6.7 81 81 N N/A 30.29 1026 10 16.0934 N/A
8:51 am 08:51 Sunny 31 -0.6 20 -6.7 64 64 N N/A 30.31 1026 10 16.0934 N/A
9:51 am 09:51 Sunny 34 1.1 19 -7.2 54 54 SW 3 6 30.32 1027 10 16.0934 N/A
10:51 am 10:51 Sunny 41 5 18 -7.8 39 39 NNW 3 6 30.31 1026 10 16.0934 N/A
11:51 am 11:51 Sunny 42 5.6 15 -9.4 33 33 N N/A 30.29 1026 10 16.0934 N/A
12:51 pm 12:51 Sunny 45 7.2 14 -10 29 29 VRB 7 11 30.27 1025 10 16.0934 N/A
1:51 pm 13:51 Sunny 46 7.8 13 -10.6 26 26 SW 7 11 30.25 1024 10 16.0934 N/A
2:51 pm 14:51 Sunny 48 8.9 14 -10 25 25 NW 10 17 30.24 1024 10 16.0934 N/A
3:51 pm 15:51 Sunny 48 8.9 13 -10.6 24 24 WNW 12 19 30.24 1024 10 16.0934 N/A
4:51 pm 16:51 Sunny 47 8.3 13 -10.6 25 25 WNW 13 20 30.25 1024 10 16.0934 N/A
5:51 pm 17:51 Sunny 45 7.2 14 -10 29 29 NW 8 13 30.27 1025 10 16.0934 N/A
6:51 pm 18:51 Clear 40 4.4 15 -9.4 36 36 NNW 9 15 30.31 1026 10 16.0934 N/A
7:51 pm 19:51 Clear 37 2.8 16 -8.9 42 42 WNW 6 9 30.33 1027 10 16.0934 N/A
8:51 pm 20:51 Clear 34 1.1 17 -8.3 50 50 N 3 6 30.34 1027 10 16.0934 N/A
9:51 pm 21:51 Clear 33 0.6 17 -8.3 52 52 NE 6 9 30.36 1028 10 16.0934 N/A
10:51 pm 22:51 Clear 30 -1.1 17 -8.3 58 58 SE 3 6 30.36 1028 10 16.0934 N/A
11:51 pm 23:51 Clear 32 undefined 16 -8.9 52 52 SW 3 6 30.37 1028 10 16.0934 N/A

Powered by AerisWeather